Location: *
(50.0228°S, 177.2688°W)
Time: 08:16:39
(UTC+00:00)

YAOGAN 6 - Pass Details

Date: 07 April 2020
Orbit: 464 x 505 km, 97.0° (Epoch: 02 June)

Event Time Altitude Azimuth Distance (km) Brightness Sun altitude
Rises 06:39:38 0° 169° (SSE) 2,552 6.2 -13.2°
Reaches altitude 10° 06:41:42 10° 169° (S) 1,668 5.2 -13.5°
Maximum altitude 06:45:17 82° 255° (WSW) 492 2.6 -14.1°
Drops below altitude 10° 06:48:51 10° 343° (NNW) 1,655 5.4 -14.6°
Sets 06:50:54 0° 344° (NNW) 2,531 6.3 -15.0°
